www.pogodaiklimat.ru

Погода и климат >> Архив погоды >> Оман >> Карн Аль Алам


ПОГОДА в Карн Аль Алам

  • Прогноз погоды в Карн Аль Алам
  • Монитор погоды в Карн Аль Алам

АРХИВ ПОГОДЫ в Карн Аль Алам

Время (UTC), дата Ветер
(напр.,м/с)
 
Видим.   Явления Облачность Т
(С)
Тd
(С)
f
(%)
Тe
(С)
Тes
(С)
Комфортность P
(гПа)
Po
(гПа)
Тmin
(С)
Tmax
(С)
R
(мм)
R24
(мм)
S
(см)
12 18.05 З 7 н/о н/о +40.8 +11.8 18 +40 +40 очень
жарко
1004.0 988.3
15 18.05 З 5 н/о н/о +38.3 +6.5 14 +36 +36 очень
жарко
1005.1 989.3
21 18.05 ЮВ 10 н/о н/о +27.6 +22.1 72 +36 +36 очень
душно
1009.4 993.0
00 19.05 В 7 н/о н/о +25.9 +19.5 68 +31 +31 очень
душно
1009.0 992.5
03 19.05 ЮВ 7 н/о н/о +26.8 +21.6 73 +34 +34 очень
душно
1010.0 993.6
06 19.05 Ю 7 н/о н/о +31.1 +23.6 64 +42 +42 опасность
перегрева
1011.2 995.0 +25.7
09 19.05 ЮЗ 6 н/о н/о +34.7 +19.5 41 +40 +40 очень
душно
1009.6 993.5
12 19.05 Ю 3 н/о н/о +36.9 +18.5 34 +41 +41 опасность
перегрева
1006.3 990.4
21 19.05 В 7 н/о н/о +27.9 +18.2 56 +33 +33 очень
душно
1011.5 995.1
00 20.05 В 5 н/о н/о +26.8 +19.5 64 +32 +32 очень
душно
1010.3 993.8 2
03 20.05 Ю 7 н/о н/о +27.2 +24.4 85 +38 +38 очень
душно
1011.2 994.8
06 20.05 Ю 6 н/о н/о +31.4 +23.3 62 +42 +42 опасность
перегрева
1012.1 995.8 +26.0
09 20.05 Ю 3 н/о н/о +37.3 +17.3 31 +40 +40 очень
душно
1010.0 994.1
12 20.05 Ю 4 н/о н/о +39.0 +15.4 25 +40 +40 очень
душно
1007.2 991.4
15 20.05 ЮВ 10 н/о н/о +36.0 +21.3 43 +44 +44 опасность
перегрева
1007.1 991.2
18 20.05 Ю 11 н/о н/о +32.9 +20.1 47 +39 +39 очень
душно
1008.9 992.8 +39.7
21 20.05 Ю 4 н/о н/о +30.4 +20.8 57 +38 +38 очень
душно
1011.3 995.1
00 21.05 ЮВ 7 н/о н/о +27.5 +22.5 74 +36 +36 очень
душно
1011.4 994.9
03 21.05 ЮВ 6 н/о н/о +27.2 +21.8 72 +35 +35 очень
душно
1012.6 996.2
06 21.05 ЮВ 5 н/о н/о +31.6 +22.3 58 +41 +41 опасность
перегрева
1013.0 996.7 +26.3
09 21.05 Ю 3 н/о н/о +37.3 +18.8 34 +42 +42 опасность
перегрева
1010.6 994.7
12 21.05 С 11 н/о н/о +26.5 +24.1 87 +37 +37 очень
душно
1010.9 994.5
18 21.05 С 4 н/о н/о +27.7 +23.7 79 +38 +38 очень
душно
1011.8 995.4 +38.7
21 21.05 ЮЗ 2 н/о н/о +27.2 +19.9 64 +33 +33 очень
душно
1010.6 994.1
00 22.05 З 2 н/о н/о +25.8 +20.5 73 +32 +32 очень
душно
1010.3 993.8
03 22.05 З 1 н/о н/о +27.2 +20.2 66 +34 +34 очень
душно
1011.7 995.3
06 22.05 СЗ 6 н/о н/о +32.9 +18.3 42 +37 +37 очень
душно
1012.1 995.9 +25.4
09 22.05 З 5 н/о н/о +37.9 +15.0 26 +39 +39 очень
душно
1009.7 993.8
12 22.05 З 8 н/о н/о +39.3 +13.0 21 +39 +39 очень
жарко
1007.7 991.9
15 22.05 З 5 н/о н/о +37.6 +11.5 21 +37 +37 очень
жарко
1008.0 992.1
21 22.05 З 4 н/о н/о +29.2 +12.7 36 +30 +30 жарко 1008.8 992.5
00 23.05 СЗ 4 н/о н/о +26.2 +14.3 48 +29 +29 жарко 1008.7 992.2
03 23.05 СЗ 4 н/о н/о +26.9 +15.3 49 +30 +30 душно 1010.1 993.6
06 23.05 СЗ 8 н/о н/о +37.5 +6.9 15 +35 +35 очень
жарко
1009.9 994.0 +25.1
09 23.05 СЗ 12 н/о н/о +41.0 +1.6 9 +37 +37 очень
жарко
1007.5 991.7
12 23.05 СЗ 11 н/о н/о +41.2 +1.0 8 +37 +37 очень
жарко
1005.7 990.0
15 23.05 СЗ 7 н/о н/о +38.4 +1.5 10 +35 +35 очень
жарко
1006.3 990.5
18 23.05 С 7 н/о н/о +33.8 +3.5 15 +31 +31 жарко 1007.8 991.7 +41.8
21 23.05 С 5 н/о н/о +30.1 +7.3 24 +29 +29 жарко 1007.4 991.1
00 24.05 СЗ 3 н/о н/о +28.5 +8.8 29 +28 +28 жарко 1007.3 991.0
03 24.05 З 3 н/о н/о +28.2 +9.6 31 +28 +28 жарко 1009.1 992.6
06 24.05 СЗ 8 н/о н/о +38.3 +2.8 11 +35 +35 очень
жарко
1009.8 993.9 +25.4
09 24.05 СЗ 8 н/о н/о +42.3 -1.9 6 +38 +38 очень
жарко
1007.8 992.1
12 24.05 СЗ 8 н/о н/о +42.4 -3.1 6 +38 +38 очень
жарко
1006.0 990.3
15 24.05 СЗ 5 н/о н/о +38.4 -0.9 8 +34 +34 очень
жарко
1006.8 990.9
18 24.05 ЮВ 5 н/о н/о +33.1 +6.3 19 +31 +31 жарко 1009.2 993.0 +43.2
21 24.05 ЮВ 5 н/о н/о +30.3 +8.5 26 +30 +30 жарко 1008.8 992.5
00 25.05 В 4 н/о н/о +26.6 +14.5 47 +29 +29 жарко 1008.7 992.3
03 25.05 В 4 н/о н/о +27.0 +15.3 49 +30 +30 душно 1010.6 994.1
06 25.05 В 2 н/о н/о +35.7 +16.3 32 +38 +38 очень
душно
1010.5 994.5 +25.1

 

Местоположение метеостанции Карн Аль Алам (Оман): широта 21.37 долгота 57.05 высота над уровнем моря 139 м.

В архиве по умолчанию представлена погода в Карн Аль Алам за последнюю неделю. Архивные данные за месяц целиком и за предыдущие месяцы, начиная с января 2011 года, Вы можете получить, выбрав интересующий диапазон дат из раскрывающегося списка и нажав кнопку "Ввод!".


*Определитесь, кто Вы:
робот инопланетянин человек

Внимание! Время в таблицах - всемирное. Для получения местного времени необходимо прибавить поправку, которая равна 4 ч.

Смотрите также архив погоды в соседних городах и на ближайших метеорологических станциях:

Погода в Умзамайме (Оман) (64 км)
Погода в Фахуде (Оман) (122 км)
Погода в Адаме (Оман) (122 км)
Погода на Джобе (Оман) (137 км)
Погода в Ялони (Оман) (159 км)
Погода в Аль Мудайби (Оман) (169 км)
Погода в Назве (Оман) (172 км)
Погода в Бахле (Оман) (181 км)
Погода в Саике (Оман) (198 км)
Погода в Эль-Дакуме (Оман) (204 км)

Пояснения к столбцам:

Ветер - указаны скорость ветра в м/с - средняя за 10 мин, порывы в срок и между сроками (в фигурных скобках) и направление, откуда дует ветер: С - северный, СВ - северо-восточный, В - восточный, ЮВ - юго-восточный, Ю - южный, ЮЗ - юго-западный, З - западный, СЗ - северо-западный.
Видимость - горизонтальная дальность видимости в метрах или километрах. При видимости от 1 до 10 км при отсутствии осадков обычно наблюдается дымка, при ухудшении видимости до 1 км и менее - туман. В сухую погоду видимость может ухудшаться дымом, пылью или мглою.
Явления - указаны атмосферные явления, наблюдавшиеся в срок или в последний час перед сроком; фигурными скобками обозначены явления, наблюдавшиеся между сроками (за 1-3 часа до срока); квадратными скобками обозначены град или гололедные отложения с указанием их диаметра в мм.
Облачность - указаны через наклонную черту общая и нижняя облачность в баллах и высота нижней границы облаков в метрах; квадратными скобками обозначены формы облаков: Ci - перистые, Cs - перисто-слоистые, Cc - перисто-кучевые, Ac - высококучевые, As - высокослоистые, Sc - слоисто-кучевые, Ns - слоисто-дождевые, Cu - кучевые, Cb - кучево-дождевые. Подробнее классификацию облаков см. в Атласе облаков (PDF).
T - Температура воздуха - температура, измеренная на высоте 2 м над землей.
Td - Температура точки росы - температура, при понижении до которой содержащийся в воздухе водяной пар достигнет насыщения.
f - Относительная влажность воздуха - влажноcть воздуха, измеренная на высоте 2 м над землей.
Te - Эффективная температура - температура, которую ощущает одетый по сезону человек в тени. Характеристика душности погоды. При расчете учитывается влияние влажности воздуха и скорости ветра на теплоощущения человека.
Tes - Эффективная температура на солнце - температура, которую ощущает человек, с поправкой на солнечный нагрев. Характеристика знойности погоды. Зависит от высоты солнца над горизонтом, облачности и скорости ветра. Ночью, в пасмурную погоду, а также при ветре 12 м/с и более поправка равна нулю.
P - Атмосферное давление - приведенное к уровню моря атмосферное давление.
Po - Атмосферное давление - измеренное на уровне метеостанции атмосферное давление.
Tmin - Минимальная температура - минимум температуры воздуха на высоте 2 м над землей.
Tmax - Максимальная температура - максимум температуры воздуха на высоте 2 м над землей.
R - Количество осадков - Количество выпавших осадков за период времени, мм. При наведении курсора мыши на число - период времени, за который выпало указанное количество осадков.
R24 - Количество осадков - Количество выпавших осадков за 24 часа, мм.
S - Снежный покров - Высота снежного покрова, см. При наведении курсора мыши на число - состояние снежного покрова и степень покрытия местности в баллах.